Home > Weather > Napa > Past weeks

Flag for USA Weather for the Past 2 Weeks in Napa, California, USA

Now
57 °F

Sunny.


Feels Like: 54 °F
Forecast: 54 / 66 °F
Wind: 12 mph from West

Location: Napa County Airport

Current Time: May 4, 2016 at 9:54:29 PM

Latest Report: May 4, 2016 at 8:54 PM


Visibility: 10 mi

Pressure: 29.84 "Hg

Humidity: 81%

Dew Point: 51 °F

Location of NapaLocation

Historic Weather in Napa — Graph

°F

Napa Temperature Yesterday

Maximum temperature yesterday: 70 °F (at 3:54 PM)
Minimum temperature yesterday: 50 °F (at 4:54 AM)
Average temperature yesterday: 59 °F

High & Low Weather Summary for the Past Weeks

 TemperatureHumidityPressure
High83 °F (May 1, 2:54 PM)100% (Apr 23, 6:54 AM)30.18 "Hg (Apr 23, 6:54 AM)
Low39 °F (Apr 26, 3:54 AM)26% (May 1, 2:54 PM)29.75 "Hg (Apr 22, 5:54 AM)
Average58 °F71%29.92 "Hg
* Reported Apr 19 7:54 PM — May 4 7:54 PM, Napa, Weather by CustomWeather, © 2016

Note: Actual official high and low records may vary slightly from our data, if they occured in-between our weather recording intervals... More about our weather records

Advertising

Napa Weather History for the Previous 24 Hours

Scroll right to see more
 ConditionsComfort  
Time TempWeatherWind HumidityBarometerVisibility
7:54 PM
Wed, May 4
58 °FSunny.10 mph81%29.81 "Hg10 mi
6:54 PM60 °FSunny.15 mph80%29.81 "Hg10 mi
5:54 PM62 °FSunny.24 mph75%29.80 "Hg10 mi
4:54 PM63 °FLight rain. Sunny.17 mph73%29.80 "Hg10 mi
3:54 PM65 °FLight rain. Passing clouds.20 mph68%29.81 "Hg10 mi
2:54 PM63 °FLight rain. Scattered clouds.17 mph73%29.83 "Hg10 mi
1:54 PM63 °FLight rain. Scattered clouds.16 mph73%29.85 "Hg10 mi
12:54 PM63 °FLight rain. Passing clouds.20 mph75%29.85 "Hg10 mi
11:54 AM63 °FPassing clouds.9 mph75%29.85 "Hg10 mi
10:54 AM61 °FSunny.7 mph81%29.85 "Hg10 mi
9:54 AM60 °FBroken clouds.8 mph80%29.85 "Hg10 mi
8:54 AM58 °FScattered clouds.6 mph87%29.84 "Hg10 mi
7:54 AM56 °FLight rain. More clouds than sun.9 mph87%29.84 "Hg10 mi
6:54 AM54 °FMostly cloudy.9 mph93%29.82 "Hg10 mi
5:54 AM53 °FPassing clouds.6 mph93%29.85 "Hg10 mi
4:54 AM54 °FPassing clouds.6 mph93%29.84 "Hg10 mi
3:54 AM54 °FClear.3 mph93%29.84 "Hg10 mi
2:54 AM54 °FClear.No wind90%29.85 "Hg10 mi
1:54 AM54 °FPassing clouds.5 mph90%29.88 "Hg10 mi
12:54 AM55 °FClear.3 mph87%29.88 "Hg10 mi
11:54 PM
Tue, May 3
56 °FClear.7 mph84%29.89 "Hg10 mi
10:54 PM57 °FClear.8 mph83%29.90 "Hg10 mi
9:54 PM58 °FClear.10 mph75%29.90 "Hg10 mi
Weather by CustomWeather, © 2016

See weather overviewHow to use our weather pages